Theta_e
308 308 308 308 308 307 306 307 306 305 304 303 304 305 307 311 314 315 315 314 314 321 328 331 331 326 331 330 331 331 332 333 332 331 332 332 331 331 331 331 333 335 336
307 307 307 308 308 308 307 306 307 306 305 302 302 303 304 306 308 309 311 315 314 314 318 326 329 330 330 329 330 330 330 331 333 332 331 331 331 330 332 332 330 331 334
306 305 305 305 308 307 307 306 306 306 305 304 301 301 302 303 304 305 307 310 311 312 313 319 324 328 327 327 326 328 326 329 330 331 332 332 331 330 329 329 330 328 330
305 305 305 305 306 307 306 306 306 306 305 304 302 301 301 303 305 305 305 305 308 309 312 314 315 320 324 327 328 329 325 326 327 329 331 332 330 328 328 327 326 327 327
306 305 305 305 307 307 306 306 305 306 305 305 303 302 301 301 302 301 302 303 303 304 307 311 312 313 319 323 325 326 327 326 325 324 329 331 331 332 329 329 328 330 331
306 305 305 305 306 306 306 306 306 306 305 305 303 302 301 300 300 300 301 301 301 300 304 305 307 310 313 317 320 324 326 327 328 328 328 328 329 331 331 330 327 325 323
306 306 306 306 306 306 306 306 305 306 305 304 303 302 302 300 300 300 301 301 300 300 300 303 305 305 310 312 316 318 322 325 327 328 326 322 325 329 330 328 329 328 325
306 306 305 307 306 306 306 306 305 306 305 304 303 302 301 300 300 300 300 300 300 300 300 301 305 303 305 309 311 312 316 319 322 325 326 326 325 325 327 326 324 328 329
306 305 305 306 306 306 306 306 305 306 305 304 303 302 302 301 300 299 299 298 298 300 300 301 301 301 305 308 308 307 310 312 316 322 324 326 326 325 324 324 321 328 327
305 305 305 305 305 305 305 306 305 305 304 304 303 302 301 301 300 299 299 299 298 298 300 301 299 299 299 303 303 304 306 307 309 312 319 321 323 324 324 323 324 323 322
305 305 304 304 304 304 305 305 305 304 304 304 303 302 301 301 299 298 298 298 298 298 299 301 300 298 297 298 299 300 302 304 306 308 310 313 318 321 321 325 326 323 322
305 305 304 304 303 304 304 304 304 304 304 303 303 302 301 300 299 298 298 296 296 298 299 298 299 298 297 296 297 297 296 298 302 305 307 308 310 313 316 321 322 324 325
305 305 304 304 303 303 303 303 303 303 303 303 303 302 301 300 300 298 298 296 295 297 297 297 296 298 297 296 296 296 295 295 297 299 302 306 307 307 310 312 316 318 320
304 304 304 304 303 303 303 303 302 303 303 303 303 302 301 300 300 299 297 296 295 296 296 296 295 297 297 296 295 295 294 294 295 297 299 300 302 304 305 307 309 311 314
303 304 304 304 303 303 303 303 303 302 303 302 302 302 301 300 300 299 296 297 296 295 295 295 295 296 297 297 298 296 295 294 294 294 296 297 299 301 300 302 305 307 309
304 304 304 304 303 303 303 303 303 302 302 302 302 301 300 300 300 299 295 295 296 296 294 294 295 295 296 296 297 297 295 294 294 293 294 295 295 296 296 297 297 300 304
304 304 304 304 303 303 303 303 302 302 301 301 301 301 300 300 299 299 294 295 296 296 294 295 295 296 296 295 295 295 295 294 293 293 293 293 293 294 294 295 296 297 297
302 302 302 302 303 303 303 303 303 303 302 302 301 300 300 300 299 299 294 294 296 294 293 294 296 296 294 293 292 293 294 293 291 290 291 291 292 292 293 294 294 295 296
301 301 301 300 300 300 300 300 302 303 303 302 301 301 300 300 299 298 294 294 294 294 293 295 295 294 293 291 290 290 290 289 289 289 289 290 291 291 291 292 293 293 294
300 300 300 300 299 299 299 299 299 299 303 303 302 301 301 300 299 297 294 294 294 294 294 293 294 293 292 291 289 288 288 287 288 288 289 289 289 289 290 290 291 292 293
300 300 300 300 300 300 299 299 299 300 299 301 302 302 300 299 298 295 294 295 294 294 293 294 293 292 292 291 290 289 288 287 287 287 287 287 288 289 289 290 290 291 292
300 300 300 300 300 299 299 299 299 299 299 302 302 301 300 300 298 295 295 294 294 294 293 293 292 292 292 292 290 290 289 288 287 287 287 287 287 289 289 290 291 291 291
300 300 300 300 300 300 299 299 299 299 299 301 301 301 300 296 297 295 294 294 293 294 294 293 293 292 293 292 291 290 289 288 287 287 286 286 287 288 288 290 290 289 291
297 298 298 298 298 299 299 299 300 300 300 300 301 297 295 296 295 294 294 294 294 293 293 293 293 292 291 290 290 289 289 288 288 287 286 286 286 287 287 288 289 290 289
292 292 292 292 294 295 297 298 299 299 300 300 299 297 296 294 294 294 293 293 292 292 292 292 292 291 290 289 288 289 289 289 288 287 287 287 287 287 287 288 288 288 288
293 291 289 290 290 292 292 293 294 294 295 295 294 294 294 294 293 293 293 292 291 291 292 292 291 290 289 288 289 289 290 289 289 288 288 287 287 287 287 287 288 288 288
Wind_Speed
17 17 18 18 20 23 24 26 29 31 30 31 29 24 20 17 16 18 23 25 24 17 18 16 28 37 37 28 23 20 25 30 27 25 26 26 27 31 29 27 26 25 25
12 13 17 18 17 18 24 27 26 28 31 28 27 26 23 19 17 17 19 23 26 22 16 13 11 25 38 37 29 29 25 27 31 30 29 32 32 30 29 30 28 30 29
9 12 15 16 12 16 18 23 20 24 29 29 26 25 25 25 25 25 24 21 23 23 17 15 12 12 24 26 33 38 34 34 32 36 33 22 29 29 32 32 33 34 35
9 12 14 15 17 14 18 21 19 21 26 28 26 25 25 25 23 24 22 22 20 23 14 15 15 13 12 17 21 35 31 36 39 37 37 38 27 14 20 26 33 34 37
13 13 14 14 11 16 19 20 20 20 24 27 25 23 24 22 20 23 22 22 23 24 18 16 16 14 13 11 16 18 21 46 50 40 33 33 40 39 34 31 24 16 30
12 12 9 10 13 17 19 17 20 16 21 24 24 22 24 22 22 23 23 24 24 23 23 25 20 16 14 14 15 13 20 22 28 44 40 37 32 28 34 40 43 42 39
9 7 10 8 8 12 15 15 18 14 18 24 25 23 24 22 22 21 21 24 25 24 22 25 27 24 16 15 15 15 13 14 19 17 36 55 46 33 28 27 31 39 41
5 5 8 7 16 7 12 14 17 15 17 21 23 23 24 22 21 20 19 20 22 22 21 21 25 28 19 16 17 19 16 13 10 19 24 28 51 47 47 40 38 35 39
5 6 6 10 12 6 11 13 15 14 17 20 22 24 26 25 23 21 20 20 20 20 20 19 22 27 22 20 20 24 20 17 14 11 13 19 25 44 47 42 40 36 31
3 5 6 7 8 10 10 11 11 13 17 18 21 23 25 25 23 21 21 21 20 19 20 19 21 23 24 21 24 23 20 18 15 14 15 15 16 22 31 37 43 52 53
3 5 7 9 8 9 11 12 14 15 17 19 23 23 23 25 24 21 20 21 21 20 19 19 22 22 23 22 25 24 23 21 19 16 14 13 16 16 13 20 28 45 49
6 8 7 8 8 8 10 12 15 16 18 21 23 24 22 24 24 21 21 21 19 19 20 19 19 22 22 22 23 25 24 22 20 18 17 18 14 12 16 25 24 25 24
7 7 12 15 13 11 12 14 14 17 19 20 22 26 24 23 23 22 22 22 19 18 20 20 20 17 21 20 20 23 25 25 19 17 16 17 20 18 18 17 19 19 22
9 13 16 15 14 13 13 13 14 15 16 18 23 26 25 22 23 23 22 20 19 20 21 21 20 17 19 19 22 22 23 23 22 18 14 14 17 18 21 22 22 21 21
11 13 15 15 14 16 14 14 15 16 19 22 24 25 24 21 22 24 22 19 19 19 21 22 21 18 20 22 23 23 25 23 22 20 18 16 11 15 20 21 22 22 22
18 14 15 20 22 17 15 17 19 20 20 22 21 23 22 22 25 26 22 20 19 23 22 21 23 22 21 21 22 26 28 26 25 21 20 20 21 17 18 20 21 21 23
20 23 21 17 18 15 18 23 25 23 22 25 25 22 20 26 29 28 24 21 21 23 23 22 22 21 25 26 26 27 29 30 28 23 22 19 21 24 25 23 20 20 20
24 24 23 22 22 25 28 29 29 29 26 25 26 23 23 27 30 29 26 22 23 24 22 21 19 24 28 28 26 24 28 31 30 27 25 22 21 23 25 27 29 23 21
27 28 28 30 31 32 31 31 33 33 30 23 24 26 26 29 31 32 26 23 25 24 22 21 22 26 27 23 23 27 29 30 30 30 26 25 25 22 24 26 27 30 25
31 31 32 34 34 34 34 36 36 36 37 36 36 26 30 31 32 31 24 22 24 27 22 22 23 26 24 21 23 25 28 31 31 29 24 24 25 28 28 28 30 31 29
32 33 33 33 33 31 32 34 37 37 35 39 34 29 29 27 31 28 22 23 26 26 26 21 25 23 23 25 27 28 28 30 32 31 31 33 29 29 30 29 30 28 29
32 32 33 33 31 32 33 36 38 37 35 30 29 33 32 30 31 26 25 24 24 26 25 25 25 24 26 28 30 30 29 30 29 31 32 32 30 31 29 30 28 25 26
22 24 26 25 26 28 30 35 36 36 34 34 37 34 27 26 27 26 27 24 24 23 27 27 27 28 29 32 32 31 30 31 32 29 29 29 32 34 34 29 26 23 23
34 34 33 34 35 35 34 33 32 31 24 29 24 22 23 23 26 27 23 23 22 26 25 27 29 31 33 32 30 30 27 28 30 32 33 34 34 33 34 28 25 23 23
30 32 34 34 34 34 34 35 33 32 29 28 24 25 22 23 21 22 21 23 26 25 28 27 30 32 34 33 29 25 26 27 30 34 36 38 36 35 31 28 26 26 26
34 39 36 36 36 36 35 35 35 28 19 14 11 16 19 20 20 23 24 22 25 22 22 24 29 34 29 27 23 23 25 26 28 33 36 38 36 31 31 31 30 29 28
Wind_Direction
46 35 25 19 8 8 14 24 15 7 14 16 19 18 12 2 356 354 356 352 359 337 319 314 257 255 257 242 246 261 267 259 256 256 249 249 247 247 246 246 245 256 257
30 19 15 8 2 1 356 4 18 3 4 13 18 19 17 14 9 1 1 4 355 2 341 327 300 241 245 245 250 257 265 268 259 250 250 254 252 246 243 244 246 250 254
36 28 17 2 359 14 12 7 16 1 357 5 10 14 14 14 16 10 5 358 351 357 359 346 313 281 255 265 265 246 250 269 264 255 243 249 250 258 248 244 249 255 250
43 23 9 8 3 15 12 8 9 7 355 357 7 14 17 16 17 7 3 3 355 350 356 346 348 333 308 267 261 253 243 260 271 265 254 244 246 248 254 253 249 254 253
48 28 9 8 28 13 8 4 360 9 355 353 3 6 9 10 7 5 7 7 3 359 350 337 338 340 328 322 276 270 266 250 258 274 260 260 249 245 253 260 253 256 254
31 28 27 3 356 355 352 352 354 9 352 348 357 0 1 2 0 1 4 2 1 1 356 349 336 330 329 319 309 305 277 267 260 245 251 270 285 256 253 259 263 267 267
46 27 13 351 344 354 342 342 358 0 347 343 351 356 356 357 359 359 357 354 355 359 359 355 353 345 322 331 341 306 298 296 268 285 247 244 261 258 259 283 281 268 267
57 17 4 338 346 2 336 337 348 345 340 340 351 350 349 352 353 356 352 351 349 351 355 352 347 349 341 334 325 311 307 312 303 265 260 253 251 256 242 273 287 282 271
54 15 359 358 7 358 336 331 341 331 337 335 341 342 343 347 350 350 349 349 348 347 350 346 345 343 352 350 330 322 327 324 319 294 272 258 272 253 251 255 266 262 290
26 341 328 330 330 336 333 327 328 325 328 324 334 334 338 340 343 344 346 344 345 346 347 344 343 341 343 349 351 355 350 341 337 324 285 287 289 262 255 257 265 262 267
272 300 315 318 311 313 312 319 320 316 317 317 324 327 330 331 337 339 341 341 341 343 344 343 338 344 346 342 347 355 360 352 342 331 332 320 298 286 285 252 275 264 251
247 260 292 293 299 305 303 309 313 310 304 305 312 322 324 325 331 335 336 337 338 341 339 338 338 337 346 354 351 353 358 355 356 343 342 336 332 309 286 273 272 269 265
252 260 297 279 276 275 286 298 303 303 299 296 307 315 320 321 326 330 330 334 335 336 335 335 339 342 340 348 348 348 352 355 354 351 351 346 337 322 315 300 292 284 278
267 276 281 275 271 280 287 287 289 303 291 296 307 308 315 318 318 321 321 326 330 329 332 331 337 339 340 342 340 344 350 351 351 350 356 344 340 335 319 313 306 306 296
292 294 292 285 281 295 280 275 283 286 290 295 296 299 308 311 306 311 314 317 320 321 324 326 330 334 332 336 337 333 337 342 345 341 344 344 351 318 319 324 319 316 313
301 281 291 297 295 285 280 284 291 285 281 282 282 297 302 298 297 304 307 309 311 312 317 317 323 326 322 325 324 321 324 330 337 331 329 334 326 321 321 323 322 324 320
315 311 290 292 293 289 298 299 296 287 279 279 282 284 287 285 292 300 302 304 303 308 313 314 317 317 314 317 316 317 318 322 328 324 321 323 320 318 319 322 321 319 317
342 339 338 333 324 316 306 302 290 287 280 273 274 278 274 277 287 294 297 299 300 307 312 316 315 306 310 317 316 308 313 318 323 324 320 317 314 311 314 317 317 318 318
332 327 324 321 317 315 313 311 294 282 272 265 266 280 269 277 284 290 291 295 300 307 309 313 308 308 314 321 321 318 319 319 321 323 320 318 318 313 313 313 311 311 314
328 324 321 317 314 312 310 306 302 300 276 270 287 261 272 274 279 289 288 294 299 304 304 304 302 310 313 324 328 327 324 322 322 324 326 323 319 318 322 321 318 312 313
320 317 314 312 310 311 312 309 307 297 294 282 274 255 261 268 282 286 285 286 293 298 302 299 304 309 313 319 326 332 327 322 319 320 321 320 317 317 318 319 315 312 309
323 321 317 315 314 314 314 309 306 307 302 276 252 248 257 269 280 278 277 282 291 294 297 300 304 309 312 317 321 325 327 327 317 313 314 316 319 321 321 317 313 310 309
342 330 333 336 339 335 325 318 314 312 298 280 273 274 268 257 273 267 274 283 289 291 295 300 303 306 309 312 315 321 323 324 327 321 314 316 321 327 323 320 317 318 314
327 326 328 328 327 323 322 315 318 311 301 293 283 271 247 257 262 264 273 284 285 289 295 297 299 301 303 308 314 314 318 321 321 322 323 327 327 324 321 321 319 316 314
353 357 356 353 345 337 332 322 310 308 294 287 278 262 265 279 268 275 276 282 288 290 292 293 295 299 306 310 310 312 315 317 319 325 321 321 323 321 322 319 315 315 314
342 340 340 340 341 346 348 343 330 327 321 284 267 277 277 277 284 282 282 286 294 296 291 292 298 301 303 311 308 312 311 310 313 309 312 315 316 315 318 317 316 314 313